Location: Usti nad Labem
(50.6670°N, 14.0330°E)
Time: 22:40:40
(UTC+01:00)

Envisat - Pass Details

Date: 10 December 2020
Orbit: 764 x 766 km, 98.1° (Epoch: 15 January)

Event Time Altitude Azimuth Distance (km) Brightness Sun altitude
Rises 18:42:55 0° 223° (SW) 3,225 7.0 -24.7°
Reaches altitude 10° 18:46:55 10° 255° (WSW) 2,306 6.5 -25.4°
Maximum altitude 18:48:43 12° 276° (W) 2,187 6.3 -25.6°
Drops below altitude 10° 18:50:32 10° 297° (WNW) 2,312 6.2 -25.9°
Sets 18:54:35 0° 329° (NNW) 3,245 6.6 -26.6°
